DAL2518 KCID-KATL

Flight info

Callsign DAL2518
Flight time N/A
Altitude 37000
Route TINGS HITMN NEWBB IHAVE MTHEW CHPPR1
Aircraft B738/M-SDE2E3FGHIRWXY/LB1

Departure

Time 2026-04-16 01:29
Airport The Eastern Iowa Airport (KCID)

Arrival

Time N/A
Airport Hartsfield Jackson Atlanta International Airport (KATL)
Time Latitude Longitude Altitude Speed Heading
2026-04-16 00:53 41.88821 -91.70198 881 ft 0 kts 106°
2026-04-16 01:13 41.88827 -91.70218 878 ft 4 kts 134°
2026-04-16 01:13 41.88845 -91.70227 878 ft 4 kts 200°
2026-04-16 01:13 41.88868 -91.70209 879 ft 4 kts 222°
2026-04-16 01:14 41.88875 -91.70200 879 ft 1 kts 226°
2026-04-16 01:19 41.88861 -91.70220 879 ft 4 kts 226°
2026-04-16 01:19 41.88826 -91.70259 863 ft 9 kts 214°
2026-04-16 01:20 41.88775 -91.70314 870 ft 9 kts 224°
2026-04-16 01:20 41.88723 -91.70390 869 ft 12 kts 236°
2026-04-16 01:20 41.88707 -91.70470 868 ft 5 kts 268°
2026-04-16 01:20 41.88708 -91.70510 868 ft 4 kts 272°
2026-04-16 01:21 41.88710 -91.70568 868 ft 10 kts 273°
2026-04-16 01:21 41.88702 -91.70663 868 ft 11 kts 244°
2026-04-16 01:21 41.88684 -91.70752 868 ft 12 kts 303°
2026-04-16 01:21 41.88753 -91.70844 867 ft 17 kts 315°
2026-04-16 01:22 41.88835 -91.70951 870 ft 16 kts 316°
2026-04-16 01:22 41.88915 -91.71056 871 ft 16 kts 315°
2026-04-16 01:22 41.88993 -91.71156 873 ft 15 kts 316°
2026-04-16 01:22 41.89068 -91.71252 875 ft 15 kts 316°
2026-04-16 01:23 41.89139 -91.71345 873 ft 10 kts 316°
2026-04-16 01:23 41.89161 -91.71410 873 ft 2 kts 263°
2026-04-16 01:23 41.89161 -91.71411 873 ft 0 kts 263°
2026-04-16 01:27 41.89158 -91.71425 874 ft 5 kts 247°
2026-04-16 01:28 41.89123 -91.71475 874 ft 9 kts 221°
2026-04-16 01:28 41.89071 -91.71462 874 ft 8 kts 138°
2026-04-16 01:28 41.89042 -91.71426 875 ft 29 kts 136°
2026-04-16 01:28 41.88685 -91.70962 868 ft 112 kts 136°
2026-04-16 01:29 41.87970 -91.70024 986 ft 168 kts 136°
2026-04-16 01:29 41.87115 -91.68910 1843 ft 171 kts 136°
2026-04-16 01:29 41.86351 -91.67681 2850 ft 172 kts 133°
2026-04-16 01:29 41.85603 -91.66389 3602 ft 188 kts 133°
2026-04-16 01:30 41.84735 -91.64917 4060 ft 208 kts 133°
2026-04-16 01:30 41.83797 -91.63330 4300 ft 228 kts 133°
2026-04-16 01:30 41.82762 -91.61578 4524 ft 248 kts 133°
2026-04-16 01:30 41.81675 -91.59735 4933 ft 257 kts 133°
2026-04-16 01:31 41.80685 -91.58069 4952 ft 276 kts 133°
2026-04-16 01:31 41.79471 -91.56038 4965 ft 281 kts 133°
2026-04-16 01:31 41.78268 -91.54018 4965 ft 280 kts 133°
2026-04-16 01:31 41.77055 -91.51983 4982 ft 279 kts 136°
2026-04-16 01:32 41.75577 -91.50355 4989 ft 273 kts 153°
2026-04-16 01:32 41.73932 -91.49077 5134 ft 274 kts 156°
2026-04-16 01:32 41.72240 -91.47858 5873 ft 276 kts 157°
2026-04-16 01:32 41.70548 -91.46634 6698 ft 277 kts 157°
2026-04-16 01:33 41.68845 -91.45383 7447 ft 282 kts 156°
2026-04-16 01:33 41.67126 -91.44100 8264 ft 284 kts 156°
2026-04-16 01:33 41.65394 -91.42790 9002 ft 288 kts 156°
2026-04-16 01:33 41.63637 -91.41449 9727 ft 293 kts 156°
2026-04-16 01:34 41.61862 -91.40082 10409 ft 299 kts 156°
2026-04-16 01:34 41.59990 -91.38645 10590 ft 322 kts 156°
2026-04-16 01:34 41.57981 -91.37099 10755 ft 344 kts 156°
2026-04-16 01:34 41.55883 -91.35475 11043 ft 359 kts 155°
2026-04-16 01:35 41.53698 -91.33771 11604 ft 365 kts 155°
2026-04-16 01:35 41.51507 -91.32054 12411 ft 365 kts 156°
2026-04-16 01:35 41.49312 -91.30334 13104 ft 368 kts 156°
2026-04-16 01:35 41.47089 -91.28595 13762 ft 371 kts 156°
2026-04-16 01:36 41.44855 -91.26850 14368 ft 374 kts 156°
2026-04-16 01:36 41.42607 -91.25096 15018 ft 375 kts 157°
2026-04-16 01:36 41.40351 -91.23338 15648 ft 377 kts 157°
2026-04-16 01:36 41.38078 -91.21570 16269 ft 379 kts 157°
2026-04-16 01:37 41.35785 -91.19788 16860 ft 382 kts 158°
2026-04-16 01:37 41.33482 -91.18001 17447 ft 385 kts 158°
2026-04-16 01:37 41.31157 -91.16197 18014 ft 388 kts 158°
2026-04-16 01:37 41.28823 -91.14389 18541 ft 389 kts 158°
2026-04-16 01:38 41.26469 -91.12566 18985 ft 393 kts 158°
2026-04-16 01:38 41.24094 -91.10730 19435 ft 397 kts 158°
2026-04-16 01:38 41.21695 -91.08877 19905 ft 400 kts 159°
2026-04-16 01:38 41.19283 -91.07013 20363 ft 403 kts 159°
2026-04-16 01:39 41.16847 -91.05134 20802 ft 406 kts 159°
2026-04-16 01:39 41.14394 -91.03243 21227 ft 409 kts 159°
2026-04-16 01:39 41.11953 -91.01362 21646 ft 413 kts 159°
2026-04-16 01:39 41.09461 -90.99444 22052 ft 415 kts 159°
2026-04-16 01:40 41.06950 -90.97513 22454 ft 418 kts 160°
2026-04-16 01:40 41.04423 -90.95571 22848 ft 422 kts 160°
2026-04-16 01:40 41.01870 -90.93611 23237 ft 425 kts 160°
2026-04-16 01:40 40.99306 -90.91644 23595 ft 427 kts 160°
2026-04-16 01:41 40.96730 -90.89668 23955 ft 429 kts 160°
2026-04-16 01:41 40.94139 -90.87682 24332 ft 430 kts 159°
2026-04-16 01:41 40.91546 -90.85697 24673 ft 432 kts 159°
2026-04-16 01:41 40.88939 -90.83704 25011 ft 434 kts 159°
2026-04-16 01:42 40.86321 -90.81705 25343 ft 435 kts 159°
2026-04-16 01:42 40.83690 -90.79697 25680 ft 437 kts 159°
2026-04-16 01:42 40.81055 -90.77689 26013 ft 438 kts 159°
2026-04-16 01:42 40.78441 -90.75698 26318 ft 440 kts 159°
2026-04-16 01:43 40.75781 -90.73675 26625 ft 442 kts 159°
2026-04-16 01:43 40.73112 -90.71646 26931 ft 443 kts 159°
2026-04-16 01:43 40.70435 -90.69613 27234 ft 445 kts 159°
2026-04-16 01:43 40.67748 -90.67575 27526 ft 446 kts 158°
2026-04-16 01:44 40.65050 -90.65530 27795 ft 448 kts 158°
2026-04-16 01:44 40.62339 -90.63477 28049 ft 450 kts 158°
2026-04-16 01:44 40.59621 -90.61421 28305 ft 452 kts 158°
2026-04-16 01:44 40.56883 -90.59353 28560 ft 454 kts 158°
2026-04-16 01:45 40.54141 -90.57283 28809 ft 455 kts 158°
2026-04-16 01:45 40.51391 -90.55207 29058 ft 456 kts 158°
2026-04-16 01:45 40.48635 -90.53130 29385 ft 456 kts 158°
2026-04-16 01:45 40.45883 -90.51055 29770 ft 455 kts 158°
2026-04-16 01:46 40.43146 -90.48993 30124 ft 453 kts 158°
2026-04-16 01:46 40.40415 -90.46939 30445 ft 452 kts 158°
2026-04-16 01:46 40.37689 -90.44892 30738 ft 451 kts 158°
2026-04-16 01:46 40.34995 -90.42872 31021 ft 451 kts 158°
2026-04-16 01:47 40.32277 -90.40836 31302 ft 450 kts 158°
2026-04-16 01:47 40.29562 -90.38803 31617 ft 448 kts 159°
2026-04-16 01:47 40.26857 -90.36779 31928 ft 447 kts 159°
2026-04-16 01:47 40.24157 -90.34761 32222 ft 446 kts 159°
2026-04-16 01:48 40.21459 -90.32748 32501 ft 445 kts 159°
2026-04-16 01:48 40.18772 -90.30744 32798 ft 444 kts 159°
2026-04-16 01:48 40.16091 -90.28745 33098 ft 443 kts 159°
2026-04-16 01:48 40.13418 -90.26756 33375 ft 442 kts 159°
2026-04-16 01:49 40.10748 -90.24770 33650 ft 441 kts 159°
2026-04-16 01:49 40.08085 -90.22791 33922 ft 440 kts 159°
2026-04-16 01:49 40.05429 -90.20819 34151 ft 439 kts 160°
2026-04-16 01:49 40.02773 -90.18851 34337 ft 439 kts 160°
2026-04-16 01:50 40.00120 -90.16886 34539 ft 439 kts 160°
2026-04-16 01:50 39.97466 -90.14921 34743 ft 438 kts 160°
2026-04-16 01:50 39.94817 -90.12962 34954 ft 438 kts 160°
2026-04-16 01:50 39.92169 -90.11004 35145 ft 437 kts 160°
2026-04-16 01:51 39.89523 -90.09051 35323 ft 437 kts 161°
2026-04-16 01:51 39.86911 -90.07124 35505 ft 437 kts 161°
2026-04-16 01:51 39.84230 -90.05148 35694 ft 437 kts 161°
2026-04-16 01:51 39.82477 -90.03857 35815 ft 437 kts 161°
2026-04-16 01:52 39.78982 -90.01285 36034 ft 437 kts 161°
2026-04-16 01:52 39.76335 -89.99339 36200 ft 436 kts 161°
2026-04-16 01:52 39.74546 -89.98025 36320 ft 436 kts 161°
2026-04-16 01:52 39.71047 -89.95457 36529 ft 436 kts 161°
2026-04-16 01:53 39.69261 -89.94147 36626 ft 436 kts 161°
2026-04-16 01:53 39.66618 -89.92211 36787 ft 436 kts 162°
2026-04-16 01:53 39.64006 -89.90299 36889 ft 437 kts 162°
2026-04-16 01:54 39.58682 -89.86411 36901 ft 440 kts 162°
2026-04-16 01:54 39.53337 -89.82510 36902 ft 440 kts 162°
2026-04-16 01:55 39.47994 -89.78616 36899 ft 441 kts 162°
2026-04-16 01:55 39.42640 -89.74722 36901 ft 441 kts 162°
2026-04-16 01:56 39.37291 -89.70837 36903 ft 441 kts 162°
2026-04-16 01:56 39.31965 -89.66977 36911 ft 441 kts 161°
2026-04-16 01:57 39.26608 -89.63102 36912 ft 441 kts 161°
2026-04-16 01:57 39.21243 -89.59229 36913 ft 442 kts 161°
2026-04-16 01:58 39.15874 -89.55359 36913 ft 442 kts 161°
2026-04-16 01:58 39.10508 -89.51497 36920 ft 442 kts 161°
2026-04-16 01:59 39.05128 -89.47634 36928 ft 443 kts 161°
2026-04-16 01:59 38.99741 -89.43771 36926 ft 443 kts 162°
2026-04-16 02:00 38.94343 -89.39909 36929 ft 444 kts 162°
2026-04-16 02:00 38.88930 -89.36041 36939 ft 445 kts 162°
2026-04-16 02:01 38.83538 -89.32196 36942 ft 447 kts 162°
2026-04-16 02:01 38.78097 -89.28321 36945 ft 448 kts 162°